Fort Huachuca, AZ

11:21 PM MST on January 19, 2017 (GMT -0700)
Sierra Vista Municipal-Libby Army Air Field

Weather History for KFHU - October, 2013

Change the Weather History Date:

Friday, October 18, 2013

  Actual Average Record
Temperature  
Mean Temperature 60 °F -  
Max Temperature 73 °F 75 °F 87 °F (1992)
Min Temperature 46 °F 53 °F 37 °F (1999)
Degree Days  
Heating Degree Days 6    
Growing Degree Days 10 (Base 50)    
Moisture  
Dew Point 17 °F    
Average Humidity 19    
Maximum Humidity 30    
Minimum Humidity 11    
Precipitation  
Precipitation 0.00 in - - ()
Sea Level Pressure  
Sea Level Pressure 29.97 in    
Wind  
Wind Speed 7 mph (SW)    
Max Wind Speed 10 mph    
Max Gust Speed -    
Visibility 10 miles    
Events      
Averages and records for this station are not official NWS values.
T = Trace of Precipitation, MM = Missing Value Source: NWS Daily Summary

Daily Weather History Graph

Daily Weather History Graph

Search for Another Location

Airport or City:

Trip Planner

Search our weather history database for the weather conditions in past years. The results will help you decide how hot, cold, wet, or windy it might be!

Date:

Astronomy

Oct. 18, 2013 Rise Set
Actual Time 6:26 AM MST 5:45 PM MST
Civil Twilight 6:02 AM MST 6:10 PM MST
Nautical Twilight 5:33 AM MST 6:38 PM MST
Astronomical Twilight 5:05 AM MST 7:06 PM MST
Moon 5:39 PM MST (10/18) 6:05 AM MST (10/18)
Length of Visible Light 12h 07m
Length of Day
11h 18m
Full, 100% of the Moon is Illuminated
Oct 18
Full
Oct 18
Full
Oct 26
Last Quarter
Nov 3
New
Nov 9
First Quarter

Hourly Weather History & Observations

Time (MST) Temp. Windchill Dew Point Humidity Pressure Visibility Wind Dir Wind Speed Gust Speed Precip Events Conditions
12:55 AM 53.6 °F - 15.8 °F 22% 29.92 in 10.0 mi SW 10.4 mph - N/A   Clear
1:55 AM 53.6 °F - 17.6 °F 24% 29.91 in 10.0 mi WSW 9.2 mph - N/A   Clear
2:55 AM 53.6 °F - 15.8 °F 22% 29.91 in 10.0 mi WSW 10.4 mph - N/A   Clear
3:55 AM 53.6 °F - 15.8 °F 22% 29.91 in 10.0 mi WSW 10.4 mph - N/A   Clear
4:55 AM 51.8 °F - 15.8 °F 24% 29.93 in 10.0 mi WSW 9.2 mph - N/A   Clear
5:55 AM 46.4 °F 42.4 °F 15.8 °F 29% 29.98 in 10.0 mi WSW 8.1 mph - N/A   Clear
6:55 AM 48.2 °F - 17.6 °F 30% 30.00 in 10.0 mi Calm Calm - N/A   Clear
7:55 AM 57.2 °F - 17.6 °F 21% 29.99 in 10.0 mi Calm Calm - N/A   Clear
8:55 AM 62.6 °F - 17.6 °F 18% 30.00 in 10.0 mi Calm Calm - N/A   Clear
9:55 AM 64.4 °F - 17.6 °F 16% 30.01 in 10.0 mi NE 4.6 mph - N/A   Clear
10:55 AM 66.2 °F - 17.6 °F 15% 30.00 in 10.0 mi Variable 6.9 mph - N/A   Clear
11:55 AM 69.8 °F - 15.8 °F 13% 29.97 in 10.0 mi Variable 5.8 mph - N/A   Clear
12:55 PM 71.6 °F - 17.6 °F 13% 29.94 in 10.0 mi Variable 6.9 mph - N/A   Clear
1:55 PM 73.4 °F - 15.8 °F 11% 29.94 in 10.0 mi NE 8.1 mph - N/A   Clear
2:55 PM 73.4 °F - 15.8 °F 11% 29.93 in 10.0 mi Calm Calm - N/A   Clear
3:55 PM 73.4 °F - 17.6 °F 12% 29.92 in 10.0 mi Variable 5.8 mph - N/A   Clear
4:55 PM 71.6 °F - 15.8 °F 12% 29.93 in 10.0 mi NNE 8.1 mph - N/A   Clear
5:55 PM 66.2 °F - 17.6 °F 15% 29.98 in 10.0 mi North 4.6 mph - N/A   Clear
6:55 PM 62.6 °F - 17.6 °F 18% 30.01 in 10.0 mi SW 6.9 mph - N/A   Clear
7:55 PM 60.8 °F - 19.4 °F 20% 30.01 in 10.0 mi WSW 8.1 mph - N/A   Clear
8:55 PM 57.2 °F - 19.4 °F 23% 30.01 in 10.0 mi SW 6.9 mph - N/A   Clear
9:55 PM 59.0 °F - 17.6 °F 20% 30.01 in 10.0 mi South 8.1 mph - N/A   Clear
10:55 PM 55.4 °F - 17.6 °F 23% 30.00 in 10.0 mi South 8.1 mph - N/A   Clear
11:56 PM 54.0 °F - 17.1 °F 23% 30.00 in 10.0 mi South 10.4 mph - N/A   Clear